TimeNZDT,TemperatureF,Dew PointF,Humidity,Sea Level PressureIn,VisibilityMPH,Wind Direction,Wind SpeedMPH,Gust SpeedMPH,PrecipitationIn,Events,Conditions,WindDirDegrees,DateUTC
12:00 AM,50.0,50.0,100,29.74,0.4,ENE,10.4,-,N/A,Fog,Fog,60,2013-10-05 11:00:00
12:30 AM,51.8,51.8,100,29.74,0.3,ENE,9.2,-,N/A,Fog,Fog,60,2013-10-05 11:30:00
1:00 AM,51.8,51.8,100,29.71,0.5,NE,8.1,-,N/A,Fog,Fog,50,2013-10-05 12:00:00
1:30 AM,51.8,51.8,100,29.71,0.6,ENE,9.2,-,N/A,Fog,Fog,70,2013-10-05 12:30:00
2:00 AM,51.8,51.8,100,29.71,1.6,ENE,9.2,-,N/A,,Overcast,70,2013-10-05 13:00:00
2:30 AM,51.8,51.8,100,29.71,1.6,NE,6.9,-,N/A,,Overcast,40,2013-10-05 13:30:00
3:00 AM,51.8,51.8,100,29.68,-9999.0,NE,4.6,-,N/A,,Overcast,50,2013-10-05 14:00:00
3:30 AM,51.8,51.8,100,29.68,1.2,NE,5.8,-,N/A,,Overcast,50,2013-10-05 14:30:00
4:00 AM,51.8,51.8,100,29.65,-9999.0,ENE,6.9,-,N/A,Fog,Fog,70,2013-10-05 15:00:00
4:30 AM,51.8,51.8,100,29.65,0.3,NE,5.8,-,N/A,Fog,Fog,40,2013-10-05 15:30:00
5:00 AM,50.0,50.0,100,29.65,0.5,NE,6.9,-,N/A,Fog,Fog,40,2013-10-05 16:00:00
5:30 AM,50.0,50.0,100,29.62,0.2,NNE,5.8,-,N/A,Fog,Fog,30,2013-10-05 16:30:00
6:00 AM,50.0,50.0,100,29.62,0.1,NE,4.6,-,N/A,Fog,Fog,50,2013-10-05 17:00:00
6:30 AM,50.0,50.0,100,29.62,0.1,ENE,5.8,-,N/A,Fog,Fog,60,2013-10-05 17:30:00
7:00 AM,48.2,48.2,100,29.62,0.1,NNE,6.9,-,N/A,Fog,Fog,20,2013-10-05 18:00:00
7:30 AM,48.2,48.2,100,29.62,0.1,NE,4.6,-,N/A,Fog,Fog,50,2013-10-05 18:30:00
8:00 AM,48.2,48.2,100,29.62,0.1,NE,4.6,-,N/A,Fog,Fog,40,2013-10-05 19:00:00
8:30 AM,48.2,48.2,100,29.62,0.1,NE,3.5,-,N/A,Fog,Fog,40,2013-10-05 19:30:00
9:00 AM,50.0,50.0,100,29.62,0.2,NE,3.5,-,N/A,Fog,Fog,40,2013-10-05 20:00:00
9:30 AM,51.8,51.8,100,29.59,5.0,NNE,4.6,-,N/A,,Mostly Cloudy,30,2013-10-05 20:30:00
10:00 AM,53.6,53.6,100,29.59,6.2,NE,4.6,-,N/A,,Unknown,40,2013-10-05 21:00:00
10:30 AM,59.0,53.6,82,29.59,6.2,NE,4.6,-,N/A,,Unknown,40,2013-10-05 21:30:00
11:00 AM,62.6,53.6,72,29.59,6.2,NE,4.6,-,N/A,,Unknown,50,2013-10-05 22:00:00
11:30 AM,66.2,53.6,64,29.59,6.2,NNE,3.5,-,N/A,,Unknown,30,2013-10-05 22:30:00
12:00 PM,68.0,55.4,64,29.56,6.2,NNE,3.5,-,N/A,,Unknown,20,2013-10-05 23:00:00
12:30 PM,71.6,57.2,60,29.56,6.2,NNE,3.5,-,N/A,,Unknown,20,2013-10-05 23:30:00
1:00 PM,73.4,48.2,41,29.53,6.2,West,5.8,-,N/A,,Unknown,270,2013-10-06 00:00:00
1:30 PM,75.2,48.2,38,29.53,6.2,WSW,6.9,-,N/A,,Unknown,250,2013-10-06 00:30:00
2:00 PM,75.2,48.2,38,29.50,6.2,West,6.9,-,N/A,,Scattered Clouds,270,2013-10-06 01:00:00
2:30 PM,75.2,48.2,38,29.50,6.2,WSW,5.8,-,N/A,,Scattered Clouds,250,2013-10-06 01:30:00
3:00 PM,75.2,50.0,41,29.50,6.2,West,9.2,-,N/A,,Unknown,270,2013-10-06 02:00:00
3:30 PM,75.2,48.2,38,29.50,6.2,West,9.2,-,N/A,,Unknown,260,2013-10-06 02:30:00
4:00 PM,73.4,48.2,41,29.47,6.2,West,4.6,-,N/A,,Unknown,260,2013-10-06 03:00:00
4:30 PM,75.2,48.2,38,29.47,6.2,West,6.9,-,N/A,,Scattered Clouds,260,2013-10-06 03:30:00
5:00 PM,73.4,50.0,44,29.47,6.2,WNW,9.2,-,N/A,,Scattered Clouds,290,2013-10-06 04:00:00
5:30 PM,69.8,46.4,43,29.47,6.2,WNW,12.7,-,N/A,,Unknown,290,2013-10-06 04:30:00
6:00 PM,69.8,46.4,43,29.47,6.2,WNW,12.7,-,N/A,,Unknown,290,2013-10-06 05:00:00
6:30 PM,68.0,44.6,43,29.47,6.2,WNW,11.5,-,N/A,,Unknown,290,2013-10-06 05:30:00
7:00 PM,66.2,46.4,49,29.47,6.2,WNW,8.1,-,N/A,,Unknown,300,2013-10-06 06:00:00
7:30 PM,64.4,46.4,52,29.47,6.2,NW,5.8,-,N/A,,Unknown,320,2013-10-06 06:30:00
8:00 PM,66.2,44.6,46,29.47,6.2,WNW,8.1,-,N/A,,Unknown,300,2013-10-06 07:00:00
8:30 PM,64.4,44.6,49,29.47,6.2,NW,4.6,-,N/A,,Unknown,320,2013-10-06 07:30:00
9:00 PM,64.4,46.4,52,29.47,6.2,North,9.2,-,N/A,,Unknown,350,2013-10-06 08:00:00
9:30 PM,64.4,42.8,45,29.47,6.2,NW,6.9,-,N/A,,Unknown,310,2013-10-06 08:30:00
10:00 PM,64.4,42.8,45,29.47,6.2,NW,10.4,-,N/A,,Unknown,320,2013-10-06 09:00:00
10:30 PM,64.4,41.0,42,29.47,6.2,NW,9.2,-,N/A,,Unknown,320,2013-10-06 09:30:00
11:00 PM,64.4,39.2,40,29.47,6.2,NW,13.8,-,N/A,,Unknown,310,2013-10-06 10:00:00
11:30 PM,64.4,39.2,40,29.47,6.2,NW,10.4,-,N/A,,Unknown,310,2013-10-06 10:30:00